Regional Weather Roundup
Issued by NWS Pendleton, OR

Home | Current Version | Previous Version | Text Only | Print | Product List | Glossary On
Versions: 1 2 3 4 5 6 7 8 9 10 11 12 13 14 15 16 17 18 19 20 21 22 23 24 25 26 27 28 29 30 31 32 33 34 35 36 37 38 39 40 41 42 43 44 45 46 47 48 49 50
000
ASUS46 KPDT 261825
RWRPDT
PENDLETON REGIONAL WEATHER ROUNDUP
NATIONAL WEATHER SERVICE PENDLETON OREGON
1100 AM PDT TUE SEP 26 2017

NOTE: FAIR INDICATES FEW OR NO CLOUDS BELOW 12,000 FEET WITH NO
SIGNIFICANT WEATHER AND/OR OBSTRUCTIONS TO VISIBILITY.

# INDICATES UNOFFICIAL STATION AND DATA

WAZ520-261910-
EAST SLOPES OF WASHINGTON CASCADES

CITY            SKY/WX      TMP DP  RH  WIND    PRES   REMARKS
#BULLFROG       N/A         62  48  60  CALM    N/A
#CLE ELUM HS    N/A         63  47  56  CALM    30.12F
#CLE ELUM LAKE  N/A         60  49  67  W1      30.14F
#EASTON DOT     N/A         57  49  75  CALM    N/A
#ELK HTS DOT    N/A         61  61  100 CALM    N/A
#GLENWOOD       N/A         58  53  83  CALM    30.17F
#NELSON 3SW     N/A         58  49  72  CALM    30.36S
#NILE           N/A         59  48  67  SW1     29.45F
#TROUT LAKE 1NE N/A         61  52  72  E1      30.16F
#TROUT LAKE 1E  N/A         60  52  75  CALM    30.21S
$$

WAZ521-261910-
SIMCOE HIGHLANDS

CITY            SKY/WX      TMP DP  RH  WIND    PRES   REMARKS
#BICKLETON HS   N/A         64  51  63  E8      30.15S
#CENTERVILLE 1SWN/A         61  50  67  CALM    30.11F
#GOLDENDALE 1NE N/A         62  42  48  SW2     N/A
#GOLDENDALE 4W  N/A         66  30  26  S3      30.20F
#GOODNOE HILLS  N/A         69  54  59  E3      N/A
#PITT 4SE       N/A         63  51  65  E2      30.18S
$$

WAZ026-261910-
KITTITAS VALLEY

CITY            SKY/WX      TMP DP  RH  WIND    PRES   REMARKS
ELLENSBURG AP   SUNNY       63  48  58  SE3     30.20S
6HR MIN TEMP:   43; 6HR MAX TEMP:   64;

#ELLENSBURG CWU N/A         64  50  60  SE1     30.11F
#ELLENSBURG 3NE N/A         58  50  75  CALM    28.27S
#ELLENSBURG 1E  N/A         60  49  67  CALM    30.21F
#KITTITAS 3S    N/A         60  50  69  CALM    30.16F
#MANASTASH RDG  N/A         62  62  100 N5      N/A
#ROCKY CYN DOT  N/A         65  45  48  N1      N/A
#RYEGRASS DOT   N/A         63  43  48  SW1     N/A
$$

WAZ027-261910-
YAKIMA VALLEY

CITY            SKY/WX      TMP DP  RH  WIND    PRES   REMARKS
SUNNYSIDE AP    SUNNY       60  49  67  CALM    30.19R
YAKIMA AIRPORT  SUNNY       68  49  51  W6      30.19F
6HR MIN TEMP:   47; 6HR MAX TEMP:   68;

YAKIMA-VAGABOND SUNNY       66  47  50  N3      30.17F
6HR MIN TEMP:   48; 6HR MAX TEMP:   66;

#DONALD 2NE     N/A         72  22  15  S3      30.17F
#GRANDVIEW      N/A         65  49  56  W1      30.18S
#MABTON         N/A         64  52  65  CALM    30.18S
#MOXEE 2E       N/A         67  N/A N/A W1      30.07F
#NACHES 2SW     N/A         63  50  62  E1      30.20S
#OUTLOOK DOT    N/A         63  51  65  NW1     30.16R
#PARKER DOT     N/A         67  47  49  E3      30.17F
#TERRACE HTS    N/A         65  52  63  CALM    30.13S
#TOPPENISH      N/A         66  52  61  CALM    30.08F
#I82 S UMTANUM RN/A         65  45  48  E2      N/A
#UNION GAP DOT  N/A         66  48  52  W1      30.21S
#W YAKIMA       N/A         65  50  58  CALM    30.16S
#WHITE SWAN 5E  N/A         67  52  59  CALM    30.17S
#WILEY CITY 3W  N/A         65  46  50  CALM    30.16S
#ZILLAH DOT     N/A         66  47  50  W2      N/A
$$

WAZ028-261910-
LOWER COLUMBIA BASIN...WASHINGTON

CITY            SKY/WX      TMP DP  RH  WIND    PRES   REMARKS
HANFORD         MOSUNNY     67  48  50  N2      30.17R
PASCO           SUNNY       70  51  51  CALM    30.18S
6HR MIN TEMP:   57; 6HR MAX TEMP:   70;

PROSSER AWOS    N/A         66  52  61  W6      30.21S
RICHLAND AWOS   SUNNY       71  51  49  CALM    30.17F
#BENTON CITY    N/A         69  52  55  CALM    30.07S
#CONNELL 5N     N/A         68  51  55  W3      30.15S
#CONNELL 5NW    N/A         67  52  59  W3      30.11R
#ELTOPIA 6NW    N/A         69  53  57  CALM    29.14F
#KAHLOTUS       N/A         66  50  56  CALM    30.14S
#KENNEWICK 3S   N/A         67  55  65  CALM    30.16S
#PATERSON       N/A         64  54  70  SW1     30.15S
#PROSSER DOT    N/A         67  49  52  W1      30.19S
#SAGEMOOR 2W    N/A         67  53  61  CALM    30.02S
#TOUCHET 2S     N/A         69  55  61  CALM    30.14S
#WEST PASCO     N/A         73  53  49  CALM    30.18S
$$

WAZ029-261910-
FOOTHILLS OF THE BLUES...WASHINGTON

CITY            SKY/WX      TMP DP  RH  WIND    PRES   REMARKS
WALLA WALLA AP  CLOUDY      67  51  56  CALM    30.18S
6HR MIN TEMP:   60; 6HR MAX TEMP:   67;

#CLYDE 6NW      N/A         67  51  56  CALM    30.14S
#DAYTON SCHOOL  N/A         66  47  50  E1      30.18S
#LOWDEN 2SE     N/A         68  55  63  CALM    30.14S
#PLEASANT VIEW 1N/A         68  50  53  E2      30.17F
#PRESCOTT       N/A         70  55  59  CALM    30.15S
#WHITMAN COLLEGEN/A         66  52  61  CALM    30.19F
#WAITSBURG 6SSE N/A         67  49  52  E3      30.16F
#WALLA WALLA 5E N/A         67  54  63  SW1     N/A
#WHITMAN MISSIONN/A         66  54  65  CALM    30.16S
$$

WAZ030-261910-
BLUE MOUNTAINS...WASHINGTON

CITY            SKY/WX      TMP DP  RH  WIND    PRES   REMARKS
#DIXIE 5SE      N/A         59  49  69  NE2     30.14R
$$

ORZ009-041-WAZ024-261910-
COLUMBIA RIVER GORGE

CITY            SKY/WX      TMP DP  RH  WIND    PRES   REMARKS
THE DALLES AP   SUNNY       66  53  63  CALM    30.17S
6HR MIN TEMP:   51; 6HR MAX TEMP:   66;

#ARLINGTON AIRPON/A         65  53  65  NW3     30.16F
#CELILO DOT     N/A         62  50  65  CALM    N/A
#LYLE           N/A         63  54  72  S2      30.17F
#MARYHILL       N/A         65  52  63  N3      N/A
#MURDOCK        N/A         65  54  68  SW1     30.12F
#RUFUS DOT      N/A         64  N/A N/A NW3     N/A
#SMITHVILLE     N/A         67  55  65  N1      30.10F

$$

ORZ510-261910-
NORTH CENTRAL OREGON

CITY            SKY/WX      TMP DP  RH  WIND    PRES   REMARKS
#ANTELOPE       N/A         63  51  65  CALM    30.01F
#CHENOWITH 1W   N/A         63  52  67  SE2     N/A
#COW CYN RST AREN/A         60  47  62  E2      N/A
#DUFUR          N/A         64  52  65  CALM    30.12S
#DUFUR 9E       N/A         60  51  72  N2      30.19S
#GRASS VALLEY 1SN/A         63  51  65  CALM    30.20S
#KENT DOT       N/A         63  41  44  CALM    N/A
#MAUPIN SCHOOL  N/A         63  51  65  CALM    30.21F
#MORO SCHOOL    N/A         65  57  75  CALM    30.17S
#SHANIKO 5WSW   N/A         60  38  44  SW2     N/A
#SHANIKO 4NW    N/A         58  47  67  N2      30.20S
#TYGH VALLEY 2NEN/A         63  51  65  CALM    30.15F
#WAPANITIA AIRPON/A         63  51  65  CALM    30.16S
#WASCO DOT      N/A         69  47  45  W1      N/A
#WASCO 5NE      N/A         65  52  63  CALM    30.14S
$$

ORZ511-261910-
CENTRAL OREGON

CITY            SKY/WX      TMP DP  RH  WIND    PRES   REMARKS
BEND AIRPORT    SUNNY       61  46  58  CALM    30.20S
MADRAS AIRPORT  SUNNY       59  59  100 N3      30.21F
PRINEVILLE AP   SUNNY       63  46  54  CALM    30.19F
REDMOND AIRPORT SUNNY       62  44  52  N6      30.19F
6HR MIN TEMP:   40; 6HR MAX TEMP:   63;

#ASHWOOD SCHOOL N/A         62  49  62  NW3     30.13F
#BEND 1SW       N/A         59  48  67  NE1     N/A
#BEND-AWBREY    N/A         61  50  67  CALM    30.11F
#BEND-KIM LN    N/A         59  50  72  N2      30.07F
#CULVER 8W      N/A         66  46  48  E2      30.18S
#LAKE BILLY CHINN/A         61  N/A N/A NE3     30.20F
#MADRAS 4S      N/A         60  15  17  CALM    30.25F
#POWELL BUTTE   N/A         60  48  64  NE1     30.11F
#PRINEVILLE     N/A         61  49  65  CALM    30.21F
#PRINEVILLE 3N  N/A         62  50  65  CALM    30.11F
#WARM SPRINGS   N/A         63  51  65  CALM    30.01F

$$


ORZ509-261910-
EAST SLOPES OF OREGON CASCADES

CITY            SKY/WX      TMP DP  RH  WIND    PRES   REMARKS
SISTERS AWOS    N/A         61  48  62  CALM    N/A
#BLUE BOX PASS  N/A         57  N/A N/A S1      N/A
#CAMP SHERMAN   N/A         65  47  52  CALM    30.17F
#LA PINE 4NW    N/A         54  45  71  CALM    30.20F
#LAVA BUTTE DOT N/A         58  39  49  CALM    N/A
#SISTERS ODOT   N/A         59  46  62  E2      N/A
#SISTERS 3N     N/A         62  50  65  E2      30.17F
#SUNRIVER       N/A         55  48  77  S1      30.16F
#TUMALO 3W      N/A         59  48  67  N1      29.99S
#WANOGA BUTTE D N/A         54  44  69  SE2     N/A

$$

ORZ044-261910-
LOWER COLUMBIA BASIN...OREGON

CITY            SKY/WX      TMP DP  RH  WIND    PRES   REMARKS
HERMISTON       SUNNY       68  52  57  NW6     30.17S
6HR MIN TEMP:   52; 6HR MAX TEMP:   68;

#BOARDMAN SCHOOLN/A         63  54  72  W2      30.15F
#BOARDMAN 8SW   N/A         66  54  65  NW3     30.16F
#ECHO 8SW       N/A         67  53  61  VRB3    30.17S
#I-84 EX 198 DOTN/A         65  52  63  CALM    N/A
#IONE SCHOOL    N/A         65  43  45  CALM    30.16S
#UMATILLA       N/A         68  52  57  CALM    30.09S
$$

ORZ507-261910-
NORTHERN FOOTHILLS OF THE BLUES

CITY            SKY/WX      TMP DP  RH  WIND    PRES   REMARKS
PENDLETON AIRPT CLOUDY      65  49  56  CALM    30.18S
6HR MIN TEMP:   53; 6HR MAX TEMP:   65;

#ADAMS 3WNW     N/A         65  52  63  CALM    30.14S
#ATHENA         N/A         64  51  63  CALM    30.18S
#CAYUSE         N/A         65  53  65  CALM    30.14S
#HELIX 3N       N/A         65  50  58  N2      30.15S
#HOLDMAN 5SE    N/A         64  51  63  CALM    30.16F
#HOLDMAN 6E     N/A         64  52  65  CALM    29.96S
#M-F GROVE ELEM N/A         65  49  56  CALM    30.15R
#M-FREEWATER 5SEN/A         66  53  63  CALM    30.17R
#PDT SUNRIDGE   N/A         65  52  63  CALM    30.19F
#PENDLETON 7NW  N/A         65  53  65  CALM    28.31R
#PILOT ROCK     N/A         66  51  58  CALM    30.19F
#TUTUILLA       N/A         63  53  70  CALM    30.24R
#UMAPINE 2E     N/A         68  54  61  N1      30.15S
#WESTON SCHOOL  N/A         62  48  60  CALM    30.09S

$$

ORZ508-261910-
SOUTHERN FOOTHILLS OF THE BLUES

CITY            SKY/WX      TMP DP  RH  WIND    PRES   REMARKS
LEXINGTON       SUNNY       66  50  56  CALM    30.21S
#AJAX           N/A         61  45  56  W3      30.32S
#FOSSIL SCHOOL  N/A         64  51  63  CALM    30.11F
#HEPPNER EOC    N/A         64  50  60  W1      30.06F
#HEPPNER 4NE    N/A         63  49  60  E3      30.12S
#LEXINGTON 2SE  N/A         69  51  53  CALM    30.15F
#MIKKALO        N/A         64  48  56  NW1     30.27S
#OLEX 4N        N/A         63  51  65  CALM    30.16S
#RUGGS 5NE      N/A         68  48  49  CALM    30.36S
#RUGGS 2SW      N/A         63  49  60  N1      30.15S

$$

ORZ502-503-261910-
BLUE MOUNTAINS

CITY            SKY/WX      TMP DP  RH  WIND    PRES   REMARKS
MEACHAM         CLOUDY      58  46  64  CALM    30.22S
6HR MIN TEMP:   41; 6HR MAX TEMP:   58;

#BATTLE MTN DOT N/A         58  45  62  N1      N/A
#GRANITE        N/A         57  43  59  SW2     30.15S
#GREENHORN 9SW  N/A         61  45  56  CALM    26.39S
#HEPPNER 15SE   N/A         64  46  52  NW1     30.10S
#LADD CYN SMT   N/A         56  43  62  NW3     N/A
#LADD CREEK ODOTN/A         55  45  69  NE3     N/A
#LONG CREEK HS  N/A         59  47  64  N3      30.21F
#N POWDER DOT   N/A         61  46  58  E2      N/A
#PIKES PEAK     N/A         55  48  77  CALM    27.99S
#SUMMERVILLE 5NWN/A         61  48  62  CALM    28.15S
#TOLLGATE       N/A         53  43  69  CALM    30.08R
#TROY SCHOOL    N/A         67  52  59  CALM    30.00F
#UKIAH          N/A         59  48  67  CALM    30.06F
#WESTON 4E      N/A         58  50  75  CALM    30.11S
$$

ORZ505-261910-
JOHN DAY BASIN

CITY            SKY/WX      TMP DP  RH  WIND    PRES   REMARKS
#JOHN DAY KJDY  N/A         64  N/A N/A CALM    29.57S
#ANTELOPE 9ESE  N/A         66  49  54  E1      N/A
#MITCHELL       N/A         64  53  67  CALM    30.32F
#MITCHELL 8NW   N/A         60  46  60  CALM    30.16F
#MONUMENT HS    N/A         67  46  47  CALM    30.12F
#MT. VERNON 5SE N/A         59  44  57  N1      30.16S
#WINLOCK        N/A         70  45  41  N2      30.14F
$$

ORZ506-261910-
OCHOCO AND JOHN DAY HIGHLANDS

CITY            SKY/WX      TMP DP  RH  WIND    PRES   REMARKS
#HORSE RIDGE DO N/A         60  44  55  NW3     N/A
#PAULINA ODOT   N/A         62  42  48  E3      N/A
#PINE MTN OBS   N/A         51  42  71  CALM    N/A
#PRAIRIE CITY   N/A         63  46  54  CALM    30.34S
#SENECA         N/A         60  N/A N/A W1      N/A
#SENECA 9NW     N/A         59  40  49  CALM    30.09F
$$

ORZ049-261910-
GRANDE RONDE VALLEY

CITY            SKY/WX      TMP DP  RH  WIND    PRES   REMARKS
LA GRANDE       CLOUDY      58  45  62  CALM    30.22S
#COVE           N/A         58  52  80  CALM    30.23S
#COVE SCHOOL    N/A         59  48  67  CALM    30.21S
#COVE 6NW       N/A         57  49  75  CALM    30.17F
#ELGIN 3N       N/A         70  48  46  CALM    30.59F
#ELGIN 1E       N/A         61  47  60  CALM    N/A
#IMBLER SCHOOL  N/A         59  47  64  CALM    30.16S
#ISLAND CITY 4N N/A         69  58  68  E1      30.14F
#UNION 1S       N/A         58  48  69  N1      30.16F
$$

ORZ050-261910-
WALLOWA COUNTY

CITY            SKY/WX      TMP DP  RH  WIND    PRES   REMARKS
JOSEPH AIRPORT  PTCLDY      63  39  41  N5      30.25R
#ENTERPRISE HS  N/A         63  47  56  CALM    30.03F
#IMNAHA SCHOOL  N/A         66  48  52  N5      30.17F
#IMNAHA 10S     N/A         66  47  50  NE2     30.17F
#JOSEPH         N/A         60  41  49  CALM    30.40S
#JOSEPH 3N      N/A         59  40  49  CALM    30.22S
#JOSEPH 3W      N/A         59  47  64  E5      30.58S
#LOSTINE        N/A         62  48  60  CALM    29.97F
#LOSTINE 3SE    N/A         63  47  56  S1      30.27F
#MT HOWARD 8000 N/A         41  37  86  CALM    30.32S
#PROMISE 1S     N/A         58  47  67  NE1     30.24S
#WALLOWA LAKE   N/A         57  44  62  CALM    30.27R
#WALLOWA SCHOOL N/A         59  48  67  CALM    30.16F



$$



USA.gov is the U.S. government's official web portal to all federal, state and local government web resources and services.